Flag for Brazil Weather past 2 weeks in Vitória, Espírito Santo, Brazil

Now
61 °F

Clear.


Feels Like: 61 °F
Forecast: 64 / 83 °F
Wind: 3 mph from East

Location: Belo Horizonte Airport

Current Time: May 26, 2015 at 7:03:31 AM

Latest Report: May 26, 2015 at 6:00 AM


Visibility: 10 mi

Pressure: 30.12 "Hg

Humidity: 88%

Dew point: 57 °F

Location of VitóriaLocation

Historic Weather in Vitória — Graph

°F

Vitória temperature yesterday

Maximum temperature yesterday: 82 °F (at 3:00 PM)
Minimum temperature yesterday: 57 °F (at 6:00 AM)
Average temperature yesterday: 69 °F

Past Weeks' High & Low Weather Summary

 TemperatureHumidityPressure
High88 °F (May 20, 5:00 PM)94% (May 11, 7:00 AM)30.36 "Hg (May 11, 7:00 AM)
Low57 °F (May 13, 5:00 AM)32% (May 25, 3:00 PM)29.98 "Hg (May 11, 2:00 PM)
Average66 °F72%30.19 "Hg
* Reported May 11 6:00 AM — May 26 6:00 AM, Vitória, Weather by CustomWeather, © 2015

Note: Actual official high and low records may vary slightly from our data, if they occured in-between our weather recording intervals... More about our weather records

Advertising

Vitória weather history for previous 24 hours

 ConditionsComfort  
Time TempWeatherWind HumidityBarometerVisibility
6:00 AM
Tue, May 26
61 °FClear.3 mph88%30.12 "Hg10 mi
5:00 AM63 °FClear.3 mph88%30.12 "Hg10 mi
4:00 AM63 °FClear.6 mph88%30.12 "Hg10 mi
3:00 AM63 °FClear.3 mph88%30.12 "Hg10 mi
2:00 AM64 °FClear.6 mph83%30.12 "Hg10 mi
1:00 AM64 °FClear.5 mph83%30.12 "Hg10 mi
12:00 AM66 °FClear.5 mph78%30.12 "Hg10 mi
11:00 PM
Mon, May 25
66 °FClear.5 mph78%30.12 "Hg10 mi
10:00 PM68 °FClear.2 mph73%30.15 "Hg10 mi
9:00 PM68 °FClear.3 mph69%30.12 "Hg10 mi
8:00 PM72 °FClear.2 mph61%30.12 "Hg10 mi
7:00 PM73 °FClear.8 mph53%30.09 "Hg10 mi
6:00 PM75 °FClear.9 mph54%30.09 "Hg10 mi
5:00 PM79 °FSunny.7 mph45%30.07 "Hg10 mi
4:00 PM82 °FSunny.2 mph32%30.07 "Hg10 mi
3:00 PM82 °FPassing clouds.5 mph32%30.07 "HgN/A
2:00 PM81 °FPassing clouds.5 mph37%30.09 "HgN/A
1:00 PM81 °FSunny.6 mph39%30.12 "Hg10 mi
12:00 PM79 °FSunny.3 mph45%30.15 "Hg10 mi
11:00 AM75 °FSunny.3 mph57%30.15 "Hg10 mi
10:00 AM72 °FSunny.3 mph65%30.18 "Hg10 mi
9:00 AM64 °FSunny.2 mph83%30.18 "Hg10 mi
8:00 AM59 °FSunny.6 mph88%30.15 "Hg10 mi
7:00 AM57 °FSunny.1 mph94%30.12 "Hg10 mi
Weather by CustomWeather, © 2015

See weather overviewHow to use our weather pages